| time (UTC) | temp C | wind direction | speed KPH | gust KPH | rain 1hr cm | rain 24hr cm | rain mn cm | humidity % | barometer mb |
| 20260902165352 | 20 | 238 | 9.7 | 17.7 | 0.00 | 0.00 | 0.00 | 58 | 1019.2 |
| 20260902163852 | 18 | 233 | 9.7 | 17.7 | 0.00 | 0.00 | 0.00 | 59 | 1019.4 |
| 20260902162352 | 18 | 235 | 6.4 | 12.9 | 0.00 | 0.00 | 0.00 | 61 | 1019.4 |
| 20260902160850 | 17 | 225 | 6.4 | 17.7 | 0.00 | 0.00 | 0.00 | 64 | 1019.6 |
| 20260902155350 | 17 | 216 | 9.7 | 17.7 | 0.00 | 0.00 | 0.00 | 61 | 1019.6 |
| 20260902153849 | 17 | 222 | 9.7 | 27.4 | 0.00 | 0.00 | 0.00 | 61 | 1019.6 |
| 20260902152348 | 17 | 244 | 17.7 | 27.4 | 0.00 | 0.00 | 0.00 | 62 | 1019.9 |
| 20260902150848 | 18 | 257 | 27.4 | 35.4 | 0.00 | 0.00 | 0.00 | 64 | 1019.9 |
| 20260902145348 | 18 | 265 | 20.9 | 35.4 | 0.00 | 0.00 | 0.00 | 63 | 1019.8 |
| 20260902143847 | 20 | 273 | 12.9 | 20.9 | 0.00 | 0.00 | 0.00 | 59 | 1019.6 |
| 20260902142346 | 20 | 233 | 17.7 | 24.1 | 0.00 | 0.00 | 0.00 | 62 | 1019.4 |
| 20260902140845 | 20 | 223 | 17.7 | 27.4 | 0.00 | 0.00 | 0.00 | 60 | 1019.6 |
| 20260902135344 | 20 | 223 | 17.7 | 27.4 | 0.00 | 0.00 | 0.00 | 60 | 1019.6 |
| 20260902133844 | 20 | 223 | 17.7 | 27.4 | 0.00 | 0.00 | 0.00 | 60 | 1019.6 |
| 20260902132343 | 20 | 223 | 17.7 | 27.4 | 0.00 | 0.00 | 0.00 | 60 | 1019.6 |
| 20260902130842 | 20 | 223 | 17.7 | 27.4 | 0.00 | 0.00 | 0.00 | 60 | 1019.6 |
| 20260902125341 | 20 | 223 | 17.7 | 27.4 | 0.00 | 0.00 | 0.00 | 60 | 1019.6 |
| 20260902123841 | 20 | 223 | 17.7 | 27.4 | 0.00 | 0.00 | 0.00 | 60 | 1019.6 |
| 20260902122341 | 20 | 229 | 17.7 | 27.4 | 0.00 | 0.00 | 0.00 | 57 | 1019.6 |
| 20260902120840 | 20 | 226 | 17.7 | 24.1 | 0.00 | 0.00 | 0.00 | 59 | 1019.6 |
| 20260902115340 | 20 | 222 | 17.7 | 20.9 | 0.00 | 0.00 | 0.00 | 58 | 1019.6 |
| 20260902113839 | 20 | 231 | 12.9 | 27.4 | 0.00 | 0.00 | 0.00 | 56 | 1019.8 |
| 20260902112338 | 20 | 231 | 12.9 | 27.4 | 0.00 | 0.00 | 0.00 | 56 | 1019.8 |
| 20260902110836 | 20 | 224 | 12.9 | 24.1 | 0.00 | 0.00 | 0.00 | 56 | 1020.0 |
| 20260902105336 | 20 | 229 | 17.7 | 24.1 | 0.00 | 0.00 | 0.00 | 56 | 1020.0 |
| 20260902103835 | 20 | 226 | 17.7 | 27.4 | 0.00 | 0.00 | 0.00 | 54 | 1020.0 |
| 20260902102334 | 20 | 226 | 17.7 | 27.4 | 0.00 | 0.00 | 0.00 | 54 | 1020.0 |
| 20260902100834 | 20 | 238 | 17.7 | 27.4 | 0.00 | 0.00 | 0.00 | 57 | 1020.0 |
| 20260902095333 | 20 | 222 | 17.7 | 24.1 | 0.00 | 0.00 | 0.00 | 59 | 1020.0 |
| 20260902093833 | 20 | 233 | 17.7 | 24.1 | 0.00 | 0.00 | 0.00 | 61 | 1019.9 |
| 20260902092332 | 18 | 231 | 17.7 | 27.4 | 0.00 | 0.00 | 0.00 | 64 | 1019.9 |
| 20260902090831 | 18 | 224 | 12.9 | 27.4 | 0.00 | 0.00 | 0.00 | 64 | 1019.9 |
| 20260902085331 | 17 | 237 | 12.9 | 24.1 | 0.00 | 0.00 | 0.00 | 66 | 1019.8 |
| 20260902083830 | 17 | 227 | 12.9 | 20.9 | 0.00 | 0.00 | 0.00 | 68 | 1019.7 |
| 20260902082330 | 16 | 213 | 9.7 | 17.7 | 0.00 | 0.00 | 0.00 | 74 | 1019.7 |
| 20260902080830 | 16 | 215 | 9.7 | 17.7 | 0.00 | 0.00 | 0.00 | 73 | 1019.7 |
| 20260902075329 | 15 | 208 | 6.4 | 12.9 | 0.00 | 0.00 | 0.00 | 80 | 1019.7 |
| 20260902073828 | 15 | 200 | 6.4 | 12.9 | 0.00 | 0.00 | 0.00 | 82 | 1019.7 |
| 20260902072327 | 13 | 194 | 6.4 | 9.7 | 0.00 | 0.00 | 0.00 | 84 | 1019.6 |
| 20260902070827 | 13 | 189 | 3.2 | 6.4 | 0.00 | 0.00 | 0.00 | 88 | 1019.5 |
| 20260902065326 | 13 | 189 | 3.2 | 6.4 | 0.00 | 0.00 | 0.00 | 88 | 1019.5 |
| 20260902063825 | 12 | 195 | 3.2 | 6.4 | 0.00 | 0.00 | 0.00 | 89 | 1019.5 |
| 20260902062324 | 12 | 176 | 3.2 | 6.4 | 0.00 | 0.00 | 0.00 | 90 | 1019.6 |
| 20260902060824 | 11 | 170 | 6.4 | 6.4 | 0.00 | 0.00 | 0.00 | 92 | 1019.6 |
| 20260902055323 | 11 | 173 | 3.2 | 6.4 | 0.00 | 0.00 | 0.00 | 93 | 1019.4 |
| 20260902053823 | 10 | 171 | 3.2 | 6.4 | 0.00 | 0.00 | 0.00 | 93 | 1019.4 |
| 20260902052322 | 10 | 191 | 3.2 | 3.2 | 0.00 | 0.00 | 0.00 | 91 | 1019.4 |
| 20260902050822 | 10 | 183 | 3.2 | 3.2 | 0.00 | 0.00 | 0.00 | 94 | 1019.4 |
| 20260902045321 | 10 | 158 | 3.2 | 3.2 | 0.00 | 0.00 | 0.00 | 93 | 1019.4 |
| 20260902043821 | 10 | 151 | 3.2 | 3.2 | 0.00 | 0.00 | 0.00 | 94 | 1019.2 |
| 20260902042320 | 10 | 157 | 3.2 | 3.2 | 0.00 | 0.00 | 0.00 | 94 | 1019.3 |
| 20260902040820 | 10 | 165 | 3.2 | 3.2 | 0.00 | 0.00 | 0.00 | 95 | 1019.4 |
| 20260902035319 | 10 | 157 | 3.2 | 3.2 | 0.00 | 0.00 | 0.00 | 96 | 1019.6 |
| 20260902033818 | 10 | 151 | 3.2 | 3.2 | 0.00 | 0.00 | 0.00 | 95 | 1019.6 |
| 20260902032318 | 10 | 175 | 0.0 | 0.0 | 0.00 | 0.00 | 0.00 | 95 | 1019.7 |
| 20260902030818 | 10 | 181 | 0.0 | 0.0 | 0.00 | 0.00 | 0.00 | 96 | 1019.7 |
| 20260902025317 | 10 | 185 | 0.0 | 3.2 | 0.00 | 0.00 | 0.00 | 95 | 1019.8 |
| 20260902023816 | 10 | 165 | 3.2 | 3.2 | 0.00 | 0.00 | 0.00 | 95 | 1019.9 |
| 20260902022315 | 10 | 165 | 3.2 | 3.2 | 0.00 | 0.00 | 0.00 | 95 | 1019.9 |
| 20260902020815 | 10 | 173 | 0.0 | 3.2 | 0.00 | 0.00 | 0.00 | 96 | 1019.9 |
| 20260902015315 | 10 | 163 | 3.2 | 3.2 | 0.00 | 0.00 | 0.00 | 96 | 1019.9 |
| 20260902013813 | 10 | 156 | 3.2 | 3.2 | 0.00 | 0.00 | 0.00 | 95 | 1019.8 |
| 20260902012313 | 8 | 151 | 0.0 | 3.2 | 0.00 | 0.00 | 0.00 | 95 | 1019.9 |
| 20260902010812 | 8 | 153 | 0.0 | 3.2 | 0.00 | 0.00 | 0.00 | 96 | 1020.0 |
| 20260902005313 | 10 | 181 | 0.0 | 3.2 | 0.00 | 0.00 | 0.00 | 96 | 1020.0 |
| 20260902003812 | 10 | 174 | 3.2 | 3.2 | 0.00 | 0.00 | 0.00 | 96 | 1020.0 |
| 20260902002312 | 10 | 123 | 0.0 | 0.0 | 0.00 | 0.00 | 0.00 | 95 | 1020.0 |
| 20260902000812 | 10 | 122 | 0.0 | 0.0 | 0.00 | 0.00 | 0.00 | 97 | 1020.0 |
| 20260901235310 | 10 | 331 | 0.0 | 0.0 | 0.00 | 0.00 | 0.00 | 95 | 1020.2 |
| 20260901233811 | 10 | 330 | 0.0 | 0.0 | 0.00 | 0.00 | 0.00 | 98 | 1020.2 |
| 20260901232310 | 10 | 331 | 0.0 | 0.0 | 0.00 | 0.00 | 0.00 | 96 | 1020.1 |
| 20260901230810 | 8 | 87 | 0.0 | 3.2 | 0.00 | 0.00 | 0.00 | 96 | 1020.1 |
| 20260901225309 | 10 | 127 | 3.2 | 3.2 | 0.00 | 0.00 | 0.00 | 95 | 1020.5 |
| 20260901223810 | 10 | 129 | 0.0 | 0.0 | 0.00 | 0.00 | 0.00 | 96 | 1020.7 |
| 20260901222309 | 10 | 127 | 0.0 | 0.0 | 0.00 | 0.00 | 0.00 | 99 | 1020.7 |
| 20260901220808 | 8 | 128 | 0.0 | 3.2 | 0.00 | 0.00 | 0.00 | 96 | 1020.8 |
| 20260901215308 | 10 | 128 | 0.0 | 0.0 | 0.00 | 0.00 | 0.00 | 95 | 1020.9 |
| 20260901213809 | 10 | 128 | 0.0 | 0.0 | 0.00 | 0.00 | 0.00 | 96 | 1020.8 |
| 20260901212309 | 10 | 128 | 0.0 | 0.0 | 0.00 | 0.00 | 0.00 | 95 | 1020.6 |
| 20260901210808 | 10 | 129 | 0.0 | 0.0 | 0.00 | 0.00 | 0.00 | 96 | 1020.7 |
| 20260901205308 | 10 | 128 | 0.0 | 0.0 | 0.00 | 0.00 | 0.00 | 95 | 1020.5 |
| 20260901203807 | 11 | 128 | 0.0 | 3.2 | 0.00 | 0.00 | 0.00 | 96 | 1020.4 |
| 20260901202306 | 10 | 123 | 0.0 | 0.0 | 0.00 | 0.00 | 0.00 | 94 | 1020.4 |
| 20260901200805 | 11 | 112 | 0.0 | 3.2 | 0.00 | 0.00 | 0.00 | 96 | 1020.3 |
| 20260901195306 | 11 | 127 | 0.0 | 3.2 | 0.00 | 0.00 | 0.00 | 92 | 1020.2 |
| 20260901193804 | 11 | 152 | 0.0 | 0.0 | 0.00 | 0.00 | 0.00 | 89 | 1020.3 |
| 20260901192301 | 13 | 157 | 0.0 | 0.0 | 0.00 | 0.00 | 0.00 | 85 | 1020.4 |
| 20260901190800 | 13 | 169 | 0.0 | 3.2 | 0.00 | 0.00 | 0.00 | 84 | 1020.4 |
| 20260901185259 | 13 | 328 | 0.0 | 3.2 | 0.00 | 0.00 | 0.00 | 81 | 1020.3 |
| 20260901183759 | 15 | 310 | 3.2 | 6.4 | 0.00 | 0.00 | 0.00 | 71 | 1020.2 |
| 20260901182258 | 17 | 306 | 6.4 | 9.7 | 0.00 | 0.00 | 0.00 | 66 | 1020.1 |
| 20260901180758 | 17 | 304 | 6.4 | 12.9 | 0.00 | 0.00 | 0.00 | 64 | 1020.1 |
| 20260901175258 | 18 | 298 | 6.4 | 12.9 | 0.00 | 0.00 | 0.00 | 61 | 1020.0 |
| 20260901173758 | 18 | 308 | 9.7 | 12.9 | 0.00 | 0.00 | 0.00 | 60 | 1019.9 |
| 20260901172257 | 18 | 312 | 9.7 | 17.7 | 0.00 | 0.00 | 0.00 | 57 | 1019.8 |
| 20260901170757 | 18 | 317 | 6.4 | 17.7 | 0.00 | 0.00 | 0.00 | 58 | 1019.8 |